TimeCDT,TemperatureF,Dew PointF,Humidity,Sea Level PressureIn,VisibilityMPH,Wind Direction,Wind SpeedMPH,Gust SpeedMPH,PrecipitationIn,Events,Conditions,WindDirDegrees,DateUTC
12:09 AM,73.4,71.6,94,29.95,9.0,SE,6.9,-,0.01,Rain-Thunderstorm,Light Thunderstorms and Rain,140,2013-08-03 05:09:00
12:30 AM,73.4,71.6,94,29.97,8.0,Calm,Calm,-,0.01,Rain,Light Rain,0,2013-08-03 05:30:00
12:52 AM,73.9,71.1,91,29.91,7.0,North,-9999.0,-,0.01,Rain,Light Rain,0,2013-08-03 05:52:00
1:52 AM,75.0,69.1,82,29.85,10.0,North,-9999.0,-,0.01,Rain,Light Rain,0,2013-08-03 06:52:00
2:52 AM,73.0,66.9,81,29.84,10.0,North,-9999.0,-,0.00,Rain,Light Rain,0,2013-08-03 07:52:00
3:52 AM,73.0,68.0,84,29.85,10.0,North,-9999.0,-,0.00,,Partly Cloudy,0,2013-08-03 08:52:00
4:52 AM,72.0,68.0,87,29.86,10.0,North,-9999.0,-,N/A,,Scattered Clouds,0,2013-08-03 09:52:00
5:52 AM,72.0,68.0,87,29.88,10.0,North,-9999.0,-,N/A,,Scattered Clouds,0,2013-08-03 10:52:00
6:52 AM,72.0,69.1,91,29.90,9.0,NE,11.5,-,N/A,,Clear,40,2013-08-03 11:52:00
7:52 AM,73.0,70.0,90,29.92,10.0,NNE,13.8,-,N/A,,Clear,30,2013-08-03 12:52:00
8:52 AM,77.0,71.1,82,29.93,10.0,ENE,9.2,16.1,N/A,,Clear,60,2013-08-03 13:52:00
9:52 AM,81.0,71.1,72,29.94,10.0,East,9.2,-,N/A,,Clear,90,2013-08-03 14:52:00
10:52 AM,82.9,72.0,69,29.96,10.0,East,15.0,20.7,N/A,,Clear,80,2013-08-03 15:52:00
11:52 AM,84.9,72.0,65,29.96,10.0,ESE,13.8,20.7,N/A,,Clear,120,2013-08-03 16:52:00
12:52 PM,86.0,72.0,63,29.96,10.0,ESE,10.4,18.4,N/A,,Mostly Cloudy,110,2013-08-03 17:52:00
1:52 PM,87.1,73.0,63,29.96,10.0,ESE,12.7,23.0,N/A,,Scattered Clouds,120,2013-08-03 18:52:00
2:52 PM,87.1,72.0,61,29.96,10.0,ESE,18.4,-,N/A,,Partly Cloudy,120,2013-08-03 19:52:00
3:52 PM,87.1,73.0,63,29.96,10.0,East,13.8,20.7,N/A,,Partly Cloudy,90,2013-08-03 20:52:00
4:52 PM,87.1,73.0,63,29.96,10.0,ESE,13.8,-,N/A,,Scattered Clouds,120,2013-08-03 21:52:00
5:52 PM,86.0,73.0,65,29.97,10.0,ESE,12.7,-,N/A,,Partly Cloudy,120,2013-08-03 22:52:00
6:52 PM,82.9,73.0,72,29.98,10.0,ESE,10.4,-,N/A,,Scattered Clouds,120,2013-08-03 23:52:00
7:52 PM,81.0,72.0,74,29.98,10.0,ESE,10.4,-,N/A,,Clear,120,2013-08-04 00:52:00
8:52 PM,79.0,71.1,77,29.98,10.0,ESE,10.4,-,N/A,,Partly Cloudy,110,2013-08-04 01:52:00
9:52 PM,79.0,71.1,77,30.01,10.0,ESE,8.1,-,N/A,,Scattered Clouds,120,2013-08-04 02:52:00
10:52 PM,78.1,71.1,79,30.01,10.0,East,9.2,-,N/A,,Mostly Cloudy,100,2013-08-04 03:52:00
11:52 PM,78.1,71.1,79,30.00,10.0,East,9.2,-,N/A,,Overcast,90,2013-08-04 04:52:00